Lid_Strength_Index
-1 -1 -1 -1 -1 -0 -1 -1 -1 -0 -0 0 1 1 0 1 1 4 6 5 7 10 10 9 9 9 9 10 13 11 11 11 11 13 14 15 18 16 19 17 17 16 15 18 16 18 20 12 12 13 11 12 12 12
-1 -1 -1 -1 -1 -0 -1 -1 -1 -1 -1 -1 -0 -0 0 0 0 1 6 5 5 9 9 7 8 7 8 8 9 10 10 10 10 12 13 13 17 20 22 21 14 17 14 16 14 15 12 12 11 10 11 11 11 11
-1 -1 -1 -1 -1 -1 -1 -1 -1 -1 -1 -1 -1 -1 -0 -0 -1 1 5 5 8 10 10 9 9 7 6 7 6 10 11 8 9 8 12 14 16 15 19 19 16 14 14 15 15 13 12 11 11 10 10 10 11 11
0 -1 -1 -0 -1 -1 -1 -1 -1 -1 -1 -1 -1 -1 -1 -1 -1 1 5 4 5 7 13 11 6 8 6 6 6 6 6 6 7 8 13 15 18 12 16 14 14 13 14 15 15 12 13 11 11 10 9 10 11 13
1 0 -1 -0 -0 -1 -1 -0 -0 -1 -1 -1 -1 -1 -1 -1 -1 2 4 4 3 8 12 10 9 6 6 6 6 6 6 8 10 11 15 17 13 13 15 14 17 13 12 13 13 12 11 10 11 12 11 10 10 12
1 1 0 -0 0 -1 -1 -1 -0 -1 -1 -1 -1 -1 -1 -1 -0 5 10 5 2 2 11 11 8 8 7 6 7 8 7 8 11 12 11 15 13 12 19 21 11 9 14 10 9 8 9 9 16 17 13 14 15 15
2 1 1 0 -0 -0 -0 -0 -1 -1 -1 -1 -1 -1 -1 1 4 7 9 6 1 3 13 13 11 9 8 7 7 8 7 8 8 8 9 11 13 9 14 14 10 10 10 8 7 9 11 15 9 16 16 18 17 19
1 0 1 0 -1 -0 -0 -0 -0 -0 -1 -0 -0 -0 0 1 3 5 5 3 3 6 7 18 12 11 7 9 10 7 8 8 8 8 9 9 12 13 12 11 10 8 8 10 9 9 7 15 18 20 21 21 20 19
-0 -0 0 0 -1 -1 -0 -0 -0 -0 0 1 1 1 4 6 7 7 4 4 6 8 13 11 17 20 9 9 9 9 9 12 12 10 11 11 18 14 12 11 11 10 12 10 12 15 19 17 18 20 19 19 19 20
0 1 0 -0 -0 -0 -0 -0 -0 0 1 1 4 7 8 8 5 5 9 9 8 10 16 12 12 13 12 14 16 15 15 17 18 16 17 14 14 10 9 9 9 10 11 12 17 17 20 20 18 19 19 19 19 20
1 1 0 0 -0 -0 -0 -0 0 1 3 7 8 9 9 6 8 10 11 12 13 19 15 19 15 15 13 15 12 12 17 19 19 18 17 20 17 13 13 11 15 21 18 15 17 17 17 17 16 18 20 20 20 21
4 2 1 1 0 0 0 0 1 6 7 7 8 9 9 10 11 15 17 18 18 18 18 18 17 17 16 12 12 13 16 15 19 19 20 22 16 17 21 22 26 26 24 23 26 24 24 23 22 21 21 21 22 22
6 5 4 2 1 0 0 1 2 4 6 9 10 11 11 13 16 17 22 20 18 19 20 19 17 15 15 14 14 16 18 19 20 22 21 19 19 20 22 26 27 28 29 31 31 31 30 29 28 25 24 27 26 26
9 7 6 4 2 1 1 1 3 5 8 11 11 13 13 15 18 20 20 19 21 19 17 15 16 15 15 17 17 20 19 20 23 25 22 18 17 19 24 26 26 27 29 31 30 30 29 29 30 31 29 27 27 28
10 10 8 5 2 1 1 3 6 9 11 14 16 18 17 19 26 29 30 27 25 23 19 19 18 15 17 16 17 21 24 26 23 22 20 18 20 21 28 30 27 28 29 29 32 30 29 30 30 33 34 31 30 30
10 11 12 6 5 5 6 7 9 11 13 13 19 23 30 26 27 29 28 27 25 22 22 21 23 23 20 19 23 24 25 24 20 20 18 25 26 24 27 29 28 30 30 32 33 33 34 33 32 32 35 32 30 29
10 16 10 7 8 8 8 10 10 11 12 16 17 29 25 27 22 22 21 20 20 20 22 24 22 20 21 24 25 24 21 18 19 18 24 24 24 25 28 31 31 31 32 32 34 35 35 36 32 32 31 33 32 31
16 15 10 8 15 14 17 15 12 14 19 22 21 23 29 29 28 31 29 23 21 23 22 21 22 25 24 25 24 20 19 17 20 19 22 27 31 33 31 29 32 31 31 32 34 35 36 35 32 30 33 34 36 38
14 14 10 10 16 18 19 20 18 18 21 28 30 29 30 32 34 33 34 32 33 32 28 30 31 27 23 21 19 19 20 22 18 23 27 32 31 30 32 35 33 33 32 34 34 32 31 31 30 31 32 32 30 31
10 10 10 11 14 20 21 23 24 22 24 24 30 32 31 32 34 37 37 35 33 35 32 31 26 22 23 18 18 16 18 22 24 25 23 31 33 33 31 30 29 30 33 39 38 36 36 36 36 32 30 30 30 30
12 12 11 15 20 20 21 24 24 24 27 26 30 28 30 33 34 37 36 33 33 32 29 25 22 18 16 22 28 25 21 22 20 18 20 24 32 30 34 34 33 31 31 31 31 32 31 29 27 30 29 29 28 31
14 13 19 18 21 23 24 27 25 27 27 30 30 29 29 31 32 33 32 32 31 28 26 26 18 16 16 18 17 24 18 25 31 31 31 29 31 33 34 30 30 29 28 28 28 28 28 28 30 29 28 29 29 30
13 15 19 20 22 25 27 29 26 27 26 30 31 29 28 31 36 33 35 31 28 26 27 24 21 27 22 26 32 31 29 22 20 22 22 24 24 30 31 28 27 27 27 27 26 26 27 28 29 28 28 30 30 29
13 17 19 21 22 25 32 30 27 27 29 29 28 26 28 36 38 37 33 28 25 25 27 25 25 26 29 32 27 20 19 26 22 24 25 24 24 24 26 25 26 25 23 26 26 26 28 28 28 28 28 28 29 28
15 17 21 25 29 31 32 32 30 29 27 27 26 26 32 37 31 35 31 25 24 26 24 26 26 25 23 22 22 24 29 25 23 22 21 23 22 35 32 34 28 26 27 28 27 27 27 27 28 28 28 28 28 29
17 18 22 24 30 28 29 29 29 27 25 25 26 34 33 30 33 27 24 24 24 24 25 26 27 27 26 25 24 23 24 30 29 24 23 23 22 22 22 25 27 26 26 23 24 26 26 27 27 28 28 28 27 27
17 20 24 31 27 27 29 28 26 24 25 25 28 32 29 27 29 24 22 24 24 25 27 26 26 25 24 23 24 23 25 29 26 27 29 26 21 21 20 22 23 22 25 23 23 24 25 26 26 27 26 26 27 27
20 22 22 24 25 25 24 26 24 24 22 24 26 27 24 23 21 22 24 25 26 26 26 25 25 26 26 26 25 26 27 29 28 29 28 27 29 28 26 28 28 22 24 23 22 23 23 24 25 26 26 26 26 26
20 25 23 27 28 26 22 21 21 20 21 23 21 21 20 20 22 23 24 24 25 28 24 24 24 27 26 26 27 27 28 30 29 28 26 25 26 24 26 27 25 26 25 24 22 22 23 23 24 24 25 25 24 25
26 26 24 25 23 23 21 21 21 25 24 23 24 24 24 22 21 22 22 23 24 25 25 26 26 25 26 26 25 25 28 28 27 26 26 25 23 24 26 26 25 26 25 25 24 23 20 21 21 25 26 26 26 26
29 26 24 23 22 26 28 29 29 28 28 27 27 26 25 25 23 25 28 31 30 27 26 25 25 25 26 26 27 27 26 27 28 27 26 25 24 25 25 26 25 25 25 25 25 24 23 24 23 25 25 25 25 24
27 26 24 23 23 29 29 30 30 29 29 27 26 27 27 26 25 22 24 25 21 21 22 23 24 25 26 26 26 26 25 25 24 24 25 25 24 23 23 24 24 24 23 24 23 23 22 23 23 23 23 24 23 23
27 27 27 26 28 30 33 31 30 29 28 24 26 27 26 24 21 20 20 17 19 19 20 20 20 22 24 25 25 25 24 24 24 22 20 20 21 22 23 23 22 22 22 22 22 22 22 22 22 22 22 22 22 22